Location: Betpouey
(42.8833°N, 0.0333°E)
Time: 08:27:49
(UTC+00:00)

X-37B - Pass Details

Date: 01 December 2020
Orbit: 384 x 390 km, 45.0° (Epoch: 02 January)

Event Time Altitude Azimuth Distance (km) Brightness Sun altitude
Rises 18:58:21 0° 276° (W) 2,265 5.7 -27.2°
Reaches altitude 10° 19:00:27 10° 281° (W) 1,412 4.3 -27.5°
Enters shadow 19:01:17 17° 285° (WNW) 1,088 3.6 -27.7°
